User: anonymous   Login
Location: Newark
(6.1731°S, 35.7419°E)
Time: 21:41:19
(UTC+00:00)
Language:

Altair - Orbit

View from above orbital plane
View from above orbital plane
View from above satellite
View from above satellite

Ground track
Ground track

The orbit data is extracted from the following two-line orbital elements,

1 00050U 60009B   21023.46470875 -.00000110  00000-0 -24084-3 0  9994
2 00050  47.2303 158.4292 0113582 261.1545  97.6369 12.20114547697088
Epoch (UTC): 23 January 2021 11:09:10
Eccentricity: 0.0113582
inclination: 47.2303°
perigee height: 1501 km
apogee height: 1682 km
right ascension of ascending node: 158.4292°
argument of perigee: 261.1545°
revolutions per day: 12.20114547
mean anomaly at epoch: 97.6369°
orbit number at epoch: 69708

The dashed part of the orbit path shows where the satellite is in the earth's shadow,  

DLR